Regional Weather Roundup
Issued by NWS

Home | Current Version | Previous Version | Text Only | Print | Product List | Glossary Off
Versions: 1 2 3 4 5 6 7 8 9 10 11 12 13 14 15 16 17 18 19 20 21 22 23 24 25 26 27 28 29 30 31 32 33 34 35 36 37 38 39 40 41 42 43 44 45 46 47 48 49 50

000
ASUS43 KFSD 261010
RWRSD

WEATHER ROUNDUP FOR SOUTH DAKOTA
NATIONAL WEATHER SERVICE SIOUX FALLS SD
500 AM CDT TUE MAY 26 2015

NOTE: "FAIR" INDICATES FEW OR NO CLOUDS BELOW 12,000 FEET WITH NO
SIGNIFICANT WEATHER AND/OR OBSTRUCTIONS TO VISIBILITY.


SDZ001>005-009-010-012>017-261100-
NORTHWEST AND NORTH CENTRAL SOUTH DAKOTA

CITY           SKY/WX    TMP DP  RH WIND       PRES   REMARKS
BUFFALO          N/A     46  44  93 CALM      29.90R
FAITH            N/A     49  47  93 NW5       29.91F
MOBRIDGE       PTCLDY    53  52  96 N6        29.89F
$$

SDZ012>016-024>037-041>051-057-063-072>074-261100-
SOUTHWEST AND SOUTH CENTRAL SOUTH DAKOTA

CITY           SKY/WX    TMP DP  RH WIND       PRES   REMARKS
RAPID CTY ARPT CLOUDY    51  50  96 W5        29.96R
PIERRE         PTCLDY    50  48  93 N8        29.89F
CUSTER         CLOUDY    45  43  93 CALM      29.99R
ELLSWORTH AFB  FOG       50  50 100 SW5       29.95  VSB 1/2
PHILIP         MOCLDY    50  49  96 CALM      29.93R
PINE RIDGE     CLOUDY    52  50  93 NE3       29.94S
SPEARFISH      CLOUDY    45  45 100 CALM      29.98R
WINNER         CLOUDY    53  49  86 NW6       29.89S
$$

SDZ004>011-016>023-039-040-261100-
NORTHEAST SOUTH DAKOTA

CITY           SKY/WX    TMP DP  RH WIND       PRES   REMARKS
ABERDEEN       PTCLDY    49  47  93 CALM      29.89R
WATERTOWN      CLOUDY    50  47  89 N12       29.86R
BROOKINGS      CLOUDY    52  50  93 N6        29.85S
SISSETON         N/A     49  48  97 N3        29.87R
$$

SDZ017-020-022-023-036>040-048>070-261100-
SOUTHEAST SOUTH DAKOTA

CITY           SKY/WX    TMP DP  RH WIND       PRES   REMARKS
SIOUX FALLS    CLOUDY    55  52  89 N9        29.80F
HURON          MOCLDY    52  49  89 N10       29.86S
CHAMBERLAIN    CLOUDY    54  50  87 N8        29.88R
MITCHELL       MOCLDY    53  50  89 N14       29.85R
YANKTON        CLOUDY    55  54  94 NW12      29.79S
$$

ABBREVIATIONS USED IN REMARKS
   TC - TEMPERATURE IN CELSIUS
  WCI - WIND CHILL INDEX
   HX - HEAT INDEX
  VSB - VISIBILITY



USA.gov is the U.S. government's official web portal to all federal, state and local government web resources and services.